"startDT [UTC]","vpos","CH4 [ppm]","stdev(CH4) [ppm]","CO2 [ppm]","stdev(CO2) [ppm]","H2O_reported [%]","stdev(H2O_reported)","CavityPressure [torr]","CavityTemp [C]","OutletValve","CH4_dry [ppm]","CO2_dry [ppm]","DasTemp [C]","EtalonTemp [C]","WarmBoxTemp [C]","MPVPosition","T_ECpre [C]","T_EC1 [C]","T_EC2 [C]","p_inlet [hPa]","p_in [hPa]","p_out [hPa]","T_inlet [C]","RH_inlet [%]","dwpt_inlet [C]","T_vent [C]","RH_vent [%]","dwpt_vent [C]","flow_vent [l min-1]","flow_inlet [l min-1]","dwpt_sample [C]","T_room [C]"
2013-10-12 00:00:00,0.0,2.00348,0.00236,400.755,0.056,0.3684,0.0011,140.004,45.000,31622.50765,2.01040,402.548,31.847,45.057,45.000,0.00,0.11,-272.57,-272.64,-19,566,0,18.2,13.1,-10.5,18.4,13.7,-9.8,5.73,2.56,-8.6,24.6
2013-10-12 00:01:00,0.0,2.00459,0.00209,400.813,0.032,0.3684,0.0017,140.003,45.000,31623.75007,2.01239,402.609,31.854,45.058,45.000,0.00,0.11,-272.57,-272.64,-19,566,0,18.2,13.1,-10.5,18.4,13.7,-9.8,5.73,2.57,-8.6,24.7
2013-10-12 00:02:00,0.0,1.99573,0.00404,400.664,0.071,0.3692,0.0011,140.002,45.000,31622.11869,2.00453,402.478,31.853,45.058,45.000,0.00,0.11,-272.58,-272.65,-19,566,0,18.3,13.1,-10.5,18.4,13.7,-9.9,5.73,2.57,-8.5,24.7
2013-10-12 00:03:00,0.0,1.97893,0.00951,400.221,0.304,0.3690,0.0017,140.004,45.000,31623.60332,1.98735,402.033,31.845,45.057,45.000,0.00,0.11,-272.58,-272.64,-19,566,0,18.3,13.1,-10.5,18.4,13.7,-9.8,5.73,2.57,-8.5,24.7
2013-10-12 00:04:00,0.0,1.98741,0.00299,400.460,0.057,0.3694,0.0015,140.003,45.000,31624.32041,1.99402,402.248,31.860,45.057,45.000,0.00,0.11,-272.58,-272.64,-19,566,0,18.3,13.1,-10.5,18.4,13.8,-9.8,5.73,2.57,-8.6,24.7
2013-10-12 00:05:00,0.0,1.99397,0.00444,400.600,0.125,0.3687,0.0017,140.001,45.000,31625.84782,2.00022,402.378,31.875,45.057,45.000,0.00,0.11,-272.58,-272.65,-19,566,0,18.3,13.1,-10.5,18.4,13.8,-9.8,5.73,2.56,-8.5,24.7
2013-10-12 00:06:00,0.0,1.99240,0.00287,400.600,0.067,0.3694,0.0015,139.999,45.000,31626.43159,2.00011,402.399,31.869,45.057,45.000,0.00,0.11,-272.58,-272.64,-19,566,0,18.3,13.2,-10.5,18.4,13.8,-9.8,5.73,2.57,-8.5,24.7
2013-10-12 00:07:00,0.0,1.99205,0.00315,400.693,0.035,0.3706,0.0024,139.999,45.000,31626.42700,1.99933,402.490,31.869,45.057,45.000,0.00,0.12,-272.58,-272.63,-19,566,0,18.3,13.2,-10.5,18.4,13.8,-9.8,5.73,2.57,-8.5,24.7
2013-10-12 00:08:00,0.0,1.99338,0.00049,400.748,0.054,0.3688,0.0015,140.007,45.000,31628.92972,2.00034,402.548,31.875,45.057,45.000,0.00,0.11,-272.58,-272.64,-19,566,0,18.3,13.2,-10.4,18.4,13.8,-9.8,5.73,2.56,-8.5,24.7
2013-10-12 00:09:00,0.0,1.98657,0.01003,400.524,0.272,0.3718,0.0018,139.998,45.000,31625.81096,1.99612,402.356,31.875,45.057,45.000,0.00,0.11,-272.58,-272.64,-19,566,0,18.3,13.2,-10.4,18.4,13.8,-9.8,5.73,2.57,-8.5,24.7
2013-10-12 00:10:00,0.0,1.95955,0.00890,399.537,0.184,0.3728,0.0013,140.000,45.000,31628.14439,1.96790,401.399,31.873,45.057,45.000,0.00,0.11,-272.57,-272.64,-19,566,0,18.3,13.2,-10.4,18.4,13.8,-9.8,5.73,2.57,-8.5,24.7
2013-10-12 00:11:00,0.0,1.96190,0.01098,399.705,0.357,0.3739,0.0021,140.005,45.000,31629.72568,1.96820,401.482,31.875,45.057,45.000,0.00,0.11,-272.57,-272.65,-19,566,0,18.3,13.2,-10.4,18.4,13.9,-9.7,5.73,2.57,-8.5,24.7
2013-10-12 00:12:00,0.0,1.96879,0.01688,399.855,0.626,0.3723,0.0017,139.998,45.000,31629.04127,1.97997,401.759,31.875,45.057,45.000,0.00,0.11,-272.58,-272.64,-19,566,0,18.3,13.3,-10.3,18.4,13.9,-9.7,5.73,2.56,-8.5,24.7
2013-10-12 00:13:00,0.0,1.95361,0.01425,399.368,0.747,0.3755,0.0019,139.996,45.000,31628.57055,1.95768,401.096,31.875,45.057,45.000,0.00,0.11,-272.57,-272.65,-19,566,0,18.3,13.3,-10.3,18.4,13.9,-9.7,5.73,2.57,-8.5,24.7
2013-10-12 00:14:00,0.0,1.95460,0.01263,399.598,0.828,0.3736,0.0012,139.998,45.000,31629.73608,1.96433,401.473,31.874,45.057,45.000,0.00,0.11,-272.58,-272.65,-19,566,0,18.3,13.3,-10.3,18.4,13.9,-9.6,5.73,2.57,-8.5,24.7
2013-10-12 00:15:00,0.0,1.95111,0.00405,399.309,0.171,0.3772,0.0017,140.006,45.000,31631.38455,1.95927,401.162,31.874,45.057,45.000,0.00,0.11,-272.58,-272.65,-19,566,0,18.3,13.4,-10.2,18.4,14.0,-9.6,5.73,2.57,-8.5,24.7
2013-10-12 00:16:00,0.0,1.94476,0.00071,399.090,0.195,0.3765,0.0021,140.001,45.000,31631.70784,1.95212,400.928,31.875,45.057,45.000,0.00,0.11,-272.58,-272.64,-19,566,0,18.3,13.4,-10.2,18.4,14.0,-9.6,5.73,2.57,-8.5,24.7
2013-10-12 00:17:00,0.0,1.95062,0.00208,399.132,0.143,0.3762,0.0028,140.003,45.000,31631.49984,1.95700,400.926,31.875,45.057,45.000,0.00,0.11,-272.57,-272.63,-19,566,0,18.3,13.4,-10.2,18.4,14.0,-9.5,5.73,2.57,-8.5,24.7
2013-10-12 00:18:00,0.0,1.94879,0.00266,399.337,0.211,0.3768,0.0011,140.002,45.000,31629.31439,1.95656,401.159,31.873,45.057,45.000,0.00,0.11,-272.58,-272.64,-19,566,0,18.3,13.4,-10.2,18.4,14.0,-9.5,5.73,2.57,-8.5,24.7
2013-10-12 00:19:00,0.0,1.94593,0.00129,399.257,0.178,0.3770,0.0016,140.005,45.000,31630.93859,1.95371,401.128,31.875,45.058,45.000,0.00,0.11,-272.58,-272.64,-19,566,0,18.3,13.4,-10.2,18.4,14.0,-9.6,5.73,2.56,-8.5,24.7
2013-10-12 00:20:00,0.0,1.94455,0.00155,399.021,0.097,0.3770,0.0020,139.999,45.000,31630.01279,1.95173,400.838,31.874,45.058,45.000,0.00,0.11,-272.58,-272.64,-19,566,0,18.3,13.4,-10.2,18.4,14.0,-9.6,5.73,2.57,-8.5,24.7
2013-10-12 00:21:00,0.0,1.94446,0.00373,398.873,0.332,0.3766,0.0018,140.001,45.000,31631.92127,1.95148,400.688,31.880,45.058,45.000,0.00,0.11,-272.58,-272.64,-19,566,0,18.3,13.4,-10.2,18.4,14.0,-9.6,5.73,2.56,-8.5,24.7
2013-10-12 00:22:00,0.0,1.94782,0.00367,399.175,0.281,0.3762,0.0013,139.999,45.000,31630.11834,1.95460,400.987,31.875,45.058,45.000,0.00,0.11,-272.58,-272.64,-19,566,0,18.3,13.4,-10.3,18.4,14.0,-9.6,5.73,2.57,-8.5,24.7
2013-10-12 00:23:00,0.0,1.94889,0.00184,399.289,0.143,0.3766,0.0016,140.000,45.000,31630.50851,1.95675,401.138,31.875,45.058,45.000,0.00,0.11,-272.58,-272.64,-19,566,0,18.3,13.3,-10.3,18.4,14.0,-9.6,5.73,2.56,-8.5,24.7
2013-10-12 00:24:00,0.0,1.94707,0.00084,399.139,0.067,0.3748,0.0018,140.001,45.000,31628.66447,1.95437,400.965,31.875,45.057,45.000,0.00,0.11,-272.57,-272.64,-19,566,0,18.3,13.3,-10.3,18.4,13.9,-9.6,5.73,2.57,-8.5,24.8
2013-10-12 00:25:00,0.0,1.94309,0.00445,398.671,0.367,0.3748,0.0018,139.997,45.000,31628.52965,1.95101,400.528,31.879,45.058,45.000,0.00,0.11,-272.57,-272.65,-19,566,0,18.3,13.3,-10.3,18.4,13.9,-9.6,5.73,2.57,-8.5,24.7
2013-10-12 00:26:00,0.0,1.94978,0.00282,399.194,0.262,0.3758,0.0020,140.003,45.000,31629.75901,1.95588,400.956,31.878,45.058,45.000,0.00,0.11,-272.58,-272.64,-19,566,0,18.3,13.3,-10.3,18.4,13.9,-9.6,5.73,2.57,-8.5,24.7
2013-10-12 00:27:00,0.0,1.95054,0.00514,399.158,0.351,0.3774,0.0014,140.003,45.000,31630.38459,1.95912,401.048,31.875,45.057,45.000,0.00,0.11,-272.58,-272.64,-19,566,0,18.4,13.3,-10.2,18.4,13.9,-9.6,5.73,2.57,-8.5,24.7
2013-10-12 00:28:00,0.0,1.93880,0.00286,398.150,0.200,0.3754,0.0015,140.003,45.000,31630.33673,1.94697,400.014,31.875,45.057,45.000,0.00,0.11,-272.58,-272.64,-19,566,0,18.4,13.3,-10.3,18.4,13.9,-9.6,5.73,2.57,-8.5,24.7
2013-10-12 00:29:00,0.0,1.93938,0.00442,398.193,0.210,0.3747,0.0009,140.001,45.000,31632.03376,1.94644,399.999,31.881,45.057,45.000,0.00,0.11,-272.58,-272.65,-19,566,0,18.4,13.3,-10.2,18.4,13.9,-9.6,5.73,2.57,-8.5,24.8
2013-10-12 00:30:00,0.0,1.94397,0.00171,398.514,0.171,0.3754,0.0013,140.001,45.000,31630.22232,1.95040,400.299,31.881,45.057,45.000,0.00,0.11,-272.57,-272.64,-19,566,0,18.4,13.3,-10.2,18.4,13.9,-9.6,5.73,2.57,-8.5,24.7
2013-10-12 00:31:00,0.0,1.94388,0.00270,398.556,0.198,0.3765,0.0013,139.997,45.000,31628.13152,1.95123,400.380,31.875,45.057,45.000,0.00,0.12,-272.58,-272.63,-19,566,0,18.4,13.4,-10.2,18.4,14.0,-9.6,5.73,2.57,-8.5,24.7
2013-10-12 00:32:00,0.0,1.94974,0.00608,398.946,0.366,0.3762,0.0017,140.006,45.000,31630.14669,1.95662,400.758,31.875,45.057,45.000,0.00,0.11,-272.58,-272.64,-19,566,0,18.3,13.4,-10.2,18.4,14.0,-9.6,5.73,2.57,-8.5,24.7
2013-10-12 00:33:00,0.0,1.94225,0.00342,398.459,0.208,0.3781,0.0014,140.002,45.000,31629.02741,1.94958,400.292,31.878,45.057,45.000,0.00,0.11,-272.58,-272.64,-19,566,0,18.4,13.4,-10.1,18.4,14.0,-9.5,5.73,2.57,-8.5,24.7
2013-10-12 00:34:00,0.0,1.94119,0.00549,398.324,0.463,0.3800,0.0015,140.005,45.000,31630.02913,1.94966,400.212,31.875,45.057,45.000,0.00,0.11,-272.57,-272.63,-19,566,0,18.4,13.5,-10.1,18.4,14.1,-9.5,5.73,2.57,-8.5,24.7
2013-10-12 00:35:00,0.0,1.93845,0.00160,398.062,0.091,0.3818,0.0008,139.997,45.000,31627.83327,1.94527,399.891,31.878,45.057,45.000,0.00,0.11,-272.58,-272.64,-19,566,0,18.3,13.5,-10.0,18.4,14.1,-9.4,5.73,2.57,-8.5,24.7
2013-10-12 00:36:00,0.0,1.93994,0.00209,398.222,0.134,0.3826,0.0010,139.999,45.000,31629.72907,1.94780,400.084,31.882,45.057,45.000,0.00,0.11,-272.57,-272.64,-19,566,0,18.4,13.6,-10.0,18.4,14.2,-9.4,5.73,2.57,-8.5,24.7
2013-10-12 00:37:00,0.0,1.94097,0.00433,398.282,0.343,0.3856,0.0017,140.003,45.000,31629.92765,1.94754,400.107,31.880,45.057,45.000,0.00,0.11,-272.57,-272.64,-19,566,0,18.4,13.7,-9.9,18.4,14.3,-9.3,5.73,2.57,-8.5,24.8
2013-10-12 00:38:00,0.0,1.93966,0.00194,398.197,0.149,0.3873,0.0016,140.003,45.000,31631.12809,1.94792,400.114,31.877,45.057,45.000,0.00,0.11,-272.58,-272.64,-19,566,0,18.4,13.7,-9.9,18.4,14.3,-9.2,5.73,2.57,-8.5,24.8
2013-10-12 00:39:00,0.0,1.94120,0.00105,398.386,0.088,0.3885,0.0009,139.999,45.000,31627.26748,1.94866,400.267,31.875,45.057,45.000,0.00,0.11,-272.58,-272.65,-19,566,0,18.4,13.8,-9.8,18.4,14.4,-9.2,5.73,2.57,-8.5,24.7
2013-10-12 00:40:00,0.0,1.93966,0.00071,398.187,0.046,0.3898,0.0008,139.997,45.000,31628.65998,1.94727,400.079,31.894,45.057,45.000,0.00,0.12,-272.57,-272.64,-19,566,0,18.4,13.8,-9.8,18.4,14.4,-9.2,5.73,2.57,-8.5,24.7
2013-10-12 00:41:00,0.0,1.94024,0.00064,398.177,0.042,0.3904,0.0004,140.000,45.000,31629.47525,1.94754,400.059,31.892,45.057,45.000,0.00,0.11,-272.57,-272.63,-19,566,0,18.4,13.8,-9.8,18.4,14.5,-9.1,5.73,2.57,-8.5,24.7
2013-10-12 00:42:00,0.0,1.94186,0.00041,398.387,0.052,0.3904,0.0021,140.005,45.000,31631.64734,1.94936,400.268,31.895,45.057,45.000,0.00,0.11,-272.58,-272.65,-19,566,0,18.4,13.9,-9.7,18.4,14.5,-9.1,5.73,2.57,-8.5,24.8
2013-10-12 00:43:00,0.0,1.94262,0.00059,398.552,0.075,0.3924,0.0020,140.001,45.000,31631.24761,1.95004,400.441,31.929,45.057,45.000,0.00,0.11,-272.58,-272.63,-19,566,0,18.4,13.9,-9.7,18.4,14.5,-9.1,5.73,2.57,-8.5,24.8
2013-10-12 00:44:00,0.0,1.94224,0.00089,398.461,0.142,0.3922,0.0021,140.003,45.000,31632.32694,1.95004,400.386,31.933,45.057,45.000,0.00,0.11,-272.58,-272.64,-19,566,0,18.4,13.9,-9.7,18.4,14.5,-9.1,5.73,2.57,-8.4,24.8
2013-10-12 00:45:00,0.0,1.94214,0.00098,398.443,0.128,0.3912,0.0018,139.999,45.000,31632.66967,1.94968,400.331,31.934,45.057,45.000,0.00,0.11,-272.58,-272.64,-19,566,0,18.4,13.9,-9.7,18.4,14.5,-9.1,5.73,2.57,-8.4,24.8
2013-10-12 00:46:00,0.0,1.94057,0.00113,398.348,0.131,0.3925,0.0015,140.005,45.000,31635.46361,1.94829,400.249,31.936,45.057,45.000,0.00,0.11,-272.58,-272.64,-19,566,0,18.4,13.9,-9.7,18.4,14.5,-9.1,5.73,2.58,-8.5,24.8
2013-10-12 00:47:00,0.0,1.93979,0.00056,398.233,0.054,0.3927,0.0020,140.000,45.000,31634.36767,1.94735,400.138,31.937,45.057,45.000,0.00,0.11,-272.58,-272.63,-19,567,0,18.4,13.9,-9.7,18.5,14.6,-9.0,5.73,2.57,-8.4,24.8
2013-10-12 00:48:00,0.0,1.94095,0.00053,398.336,0.066,0.3953,0.0011,139.995,45.000,31633.26521,1.94836,400.241,31.938,45.057,45.000,0.00,0.11,-272.58,-272.64,-19,567,0,18.4,14.0,-9.6,18.5,14.6,-9.0,5.73,2.57,-8.4,24.8
2013-10-12 00:49:00,0.0,1.94102,0.00077,398.382,0.061,0.3964,0.0020,139.998,45.000,31633.40762,1.94883,400.308,31.938,45.057,45.000,0.00,0.11,-272.58,-272.64,-19,567,0,18.4,14.0,-9.6,18.5,14.7,-8.9,5.73,2.57,-8.5,24.8
2013-10-12 00:50:00,0.0,1.93966,0.00047,398.245,0.026,0.3987,0.0021,140.000,45.000,31634.64881,1.94744,400.182,31.942,45.057,45.000,0.00,0.11,-272.58,-272.64,-19,567,0,18.4,14.1,-9.5,18.5,14.7,-8.9,5.73,2.57,-8.4,24.8
2013-10-12 00:51:00,0.0,1.93887,0.00068,398.127,0.057,0.3980,0.0018,140.002,45.000,31636.76992,1.94671,400.063,31.959,45.057,45.000,0.00,0.11,-272.58,-272.64,-19,567,0,18.4,14.1,-9.5,18.5,14.7,-8.8,5.73,2.57,-8.4,24.8
2013-10-12 00:52:00,0.0,1.93863,0.00043,398.079,0.058,0.4004,0.0017,139.997,45.000,31634.71194,1.94629,400.012,31.944,45.057,45.000,0.00,0.11,-272.57,-272.64,-19,567,0,18.4,14.1,-9.5,18.5,14.8,-8.8,5.73,2.57,-8.4,24.8
2013-10-12 00:53:00,0.0,1.93834,0.00045,398.148,0.042,0.4007,0.0009,140.002,45.000,31638.93063,1.94618,400.090,31.942,45.057,45.000,0.00,0.11,-272.57,-272.64,-19,567,0,18.4,14.1,-9.5,18.5,14.8,-8.8,5.73,2.57,-8.4,24.8
2013-10-12 00:54:00,0.0,1.93771,0.00061,398.135,0.065,0.4001,0.0008,139.999,45.000,31636.85846,1.94548,400.080,31.938,45.057,45.000,0.00,0.11,-272.57,-272.63,-19,567,0,18.4,14.2,-9.4,18.5,14.8,-8.8,5.73,2.57,-8.4,24.8
2013-10-12 00:55:00,0.0,1.93721,0.00098,398.048,0.097,0.4008,0.0011,140.006,45.000,31638.52404,1.94512,399.991,31.942,45.057,45.000,0.00,0.11,-272.58,-272.64,-19,567,0,18.4,14.2,-9.4,18.5,14.8,-8.8,5.73,2.57,-8.4,24.8
2013-10-12 00:56:00,0.0,1.93689,0.00075,397.933,0.046,0.4014,0.0021,139.995,45.000,31634.81324,1.94454,399.882,31.954,45.057,45.000,0.00,0.11,-272.58,-272.64,-18,567,0,18.4,14.2,-9.4,18.5,14.8,-8.8,5.73,2.57,-8.4,24.8
2013-10-12 00:57:00,0.0,1.93777,0.00050,397.976,0.061,0.3997,0.0022,140.000,45.000,31635.74071,1.94527,399.901,31.938,45.057,45.000,0.00,0.11,-272.58,-272.64,-19,567,0,18.4,14.1,-9.5,18.5,14.8,-8.8,5.73,2.57,-8.4,24.8
2013-10-12 00:58:00,0.0,1.93780,0.00052,398.001,0.022,0.3968,0.0012,140.001,45.000,31635.72319,1.94562,399.927,31.938,45.057,45.000,0.00,0.11,-272.57,-272.65,-19,567,0,18.4,14.1,-9.5,18.5,14.7,-8.9,5.73,2.57,-8.4,24.8
2013-10-12 00:59:00,0.0,1.93758,0.00023,397.970,0.062,0.3976,0.0014,140.000,45.000,31634.88484,1.94519,399.889,31.940,45.058,45.000,0.00,0.11,-272.58,-272.64,-18,567,0,18.4,14.0,-9.5,18.5,14.7,-8.9,5.73,2.57,-8.4,24.8
2013-10-12 01:00:00,0.0,1.93811,0.00068,398.026,0.035,0.3977,0.0015,140.001,45.000,31638.98842,1.94581,399.959,31.943,45.058,45.000,0.00,0.11,-272.58,-272.65,-18,567,0,18.4,14.0,-9.6,18.5,14.7,-8.9,5.73,2.57,-8.4,24.8
2013-10-12 01:01:00,0.0,1.93594,0.00085,397.798,0.048,0.3958,0.0016,140.005,45.000,31639.21114,1.94375,399.726,31.939,45.057,45.000,0.00,0.12,-272.57,-272.64,-18,567,0,18.4,14.0,-9.6,18.5,14.6,-9.0,5.73,2.57,-8.4,24.8
2013-10-12 01:02:00,0.0,1.93505,0.00067,397.726,0.086,0.3939,0.0018,140.002,45.000,31637.31362,1.94267,399.629,31.943,45.057,45.000,0.00,0.11,-272.58,-272.63,-18,567,0,18.4,13.9,-9.7,18.5,14.5,-9.0,5.73,2.57,-8.4,24.8
2013-10-12 01:03:00,0.0,1.93555,0.00081,397.780,0.055,0.3928,0.0025,139.998,45.000,31637.24323,1.94301,399.682,31.960,45.057,45.000,0.00,0.11,-272.57,-272.64,-18,567,0,18.4,13.9,-9.7,18.5,14.5,-9.1,5.73,2.57,-8.4,24.8
2013-10-12 01:04:00,0.0,1.93613,0.00042,397.837,0.046,0.3914,0.0018,140.002,45.000,31638.58741,1.94366,399.724,31.949,45.057,45.000,0.00,0.11,-272.58,-272.64,-18,567,0,18.4,13.8,-9.7,18.5,14.5,-9.1,5.73,2.57,-8.4,24.8
2013-10-12 01:05:00,0.0,1.93726,0.00062,398.012,0.064,0.3911,0.0018,139.997,45.000,31639.31064,1.94466,399.895,31.968,45.057,45.000,0.00,0.11,-272.58,-272.65,-18,567,0,18.4,13.8,-9.7,18.5,14.4,-9.1,5.73,2.57,-8.4,24.8
2013-10-12 01:06:00,0.0,1.93837,0.00048,398.074,0.040,0.3905,0.0023,139.999,45.000,31640.25570,1.94574,399.966,31.969,45.057,45.000,0.00,0.11,-272.58,-272.64,-18,567,0,18.4,13.8,-9.8,18.6,14.4,-9.1,5.73,2.57,-8.4,24.8
2013-10-12 01:07:00,0.0,1.93846,0.00091,398.003,0.037,0.3892,0.0019,139.999,45.000,31640.22215,1.94625,399.897,31.967,45.057,45.000,0.00,0.12,-272.58,-272.64,-18,567,0,18.5,13.8,-9.7,18.5,14.4,-9.1,5.73,2.57,-8.4,24.8
2013-10-12 01:08:00,0.0,1.93652,0.00047,397.972,0.066,0.3885,0.0025,139.999,45.000,31641.30220,1.94414,399.850,32.000,45.057,45.000,0.00,0.11,-272.58,-272.64,-18,567,0,18.4,13.7,-9.8,18.6,14.4,-9.1,5.73,2.57,-8.4,24.8
2013-10-12 01:09:00,0.0,1.93535,0.00029,397.986,0.057,0.3883,0.0011,140.010,45.000,31644.58835,1.94292,399.863,31.999,45.057,45.000,0.00,0.11,-272.58,-272.65,-18,567,0,18.4,13.7,-9.8,18.6,14.3,-9.1,5.73,2.57,-8.4,24.8
2013-10-12 01:10:00,0.0,1.93425,0.00048,397.777,0.061,0.3879,0.0015,139.998,45.000,31643.95739,1.94184,399.667,32.000,45.057,45.000,0.00,0.11,-272.58,-272.64,-18,567,0,18.5,13.7,-9.8,18.6,14.3,-9.2,5.73,2.57,-8.4,24.8
2013-10-12 01:11:00,0.0,1.93429,0.00036,397.793,0.114,0.3893,0.0016,140.002,45.000,31643.74748,1.94181,399.685,31.999,45.057,45.000,0.00,0.11,-272.58,-272.64,-18,567,0,18.5,13.7,-9.8,18.6,14.3,-9.2,5.73,2.57,-8.4,24.8
2013-10-12 01:12:00,0.0,1.93456,0.00041,397.839,0.091,0.3877,0.0010,140.002,45.000,31642.65398,1.94193,399.705,32.000,45.057,45.000,0.00,0.11,-272.58,-272.64,-18,567,0,18.4,13.7,-9.8,18.5,14.3,-9.2,5.73,2.57,-8.4,24.8
2013-10-12 01:13:00,0.0,1.93463,0.00065,397.826,0.045,0.3877,0.0016,139.999,45.000,31642.25101,1.94216,399.705,32.000,45.057,45.000,0.00,0.11,-272.58,-272.64,-18,567,0,18.4,13.7,-9.8,18.6,14.3,-9.2,5.73,2.57,-8.4,24.8
2013-10-12 01:14:00,0.0,1.93435,0.00019,397.752,0.067,0.3888,0.0012,140.001,45.000,31640.83851,1.94179,399.630,32.000,45.057,45.000,0.00,0.11,-272.58,-272.64,-18,567,0,18.4,13.7,-9.8,18.5,14.3,-9.2,5.73,2.57,-8.4,24.8
2013-10-12 01:15:00,0.0,1.93482,0.00036,397.749,0.043,0.3878,0.0025,140.006,45.000,31643.12501,1.94222,399.632,32.000,45.057,45.000,0.00,0.12,-272.58,-272.64,-18,567,0,18.4,13.7,-9.8,18.5,14.3,-9.2,5.73,2.57,-8.4,24.8
2013-10-12 01:16:00,0.0,1.93532,0.00031,397.769,0.042,0.3908,0.0020,140.004,45.000,31642.28592,1.94277,399.654,32.004,45.057,45.000,0.00,0.11,-272.58,-272.64,-18,567,0,18.4,13.7,-9.8,18.5,14.3,-9.2,5.73,2.57,-8.4,24.8
2013-10-12 01:17:00,0.0,1.93524,0.00026,397.778,0.033,0.3894,0.0012,139.998,45.000,31640.86865,1.94276,399.660,32.000,45.057,45.000,0.00,0.11,-272.58,-272.65,-18,567,0,18.4,13.7,-9.8,18.6,14.4,-9.1,5.73,2.57,-8.4,24.8
2013-10-12 01:18:00,0.0,1.93567,0.00021,397.828,0.040,0.3891,0.0009,140.000,45.000,31641.24727,1.94318,399.705,32.002,45.057,45.000,0.00,0.11,-272.58,-272.65,-18,567,0,18.4,13.8,-9.8,18.5,14.4,-9.2,5.73,2.57,-8.4,24.8
2013-10-12 01:19:00,0.0,1.93434,0.00072,397.863,0.127,0.3906,0.0020,139.997,45.000,31641.42336,1.94209,399.767,32.000,45.057,45.000,0.00,0.11,-272.58,-272.64,-18,567,0,18.5,13.8,-9.7,18.6,14.4,-9.1,5.73,2.56,-8.4,24.8
2013-10-12 01:20:00,0.0,1.93348,0.00033,397.681,0.043,0.3916,0.0020,140.001,45.000,31642.88111,1.94099,399.569,32.000,45.057,45.000,0.00,0.11,-272.57,-272.64,-18,567,0,18.5,13.8,-9.7,18.6,14.4,-9.1,5.73,2.57,-8.4,24.9
2013-10-12 01:21:00,0.0,1.93368,0.00042,397.746,0.050,0.3915,0.0020,140.002,45.000,31641.62833,1.94122,399.636,32.000,45.057,45.000,0.00,0.11,-272.58,-272.64,-18,567,0,18.4,13.8,-9.7,18.6,14.4,-9.1,5.73,2.57,-8.4,24.8
2013-10-12 01:22:00,0.0,1.93339,0.00019,397.753,0.052,0.4005,0.0127,139.999,45.000,31641.34345,1.94109,399.693,32.013,45.057,45.000,0.00,0.11,-272.58,-272.64,-18,567,0,18.5,14.0,-9.5,18.6,14.7,-8.9,5.73,2.57,-8.4,24.8
2013-10-12 01:23:00,0.0,1.93346,0.00052,397.811,0.030,0.3919,0.0009,140.001,45.000,31642.29736,1.94092,399.701,32.001,45.057,45.000,0.00,0.11,-272.58,-272.65,-18,567,0,18.5,13.8,-9.7,18.6,14.5,-9.0,5.73,2.57,-8.4,24.9
2013-10-12 01:24:00,0.0,1.93374,0.00046,397.835,0.045,0.3930,0.0012,140.000,45.000,31643.62251,1.94139,399.743,32.004,45.057,45.000,0.00,0.11,-272.58,-272.65,-18,567,0,18.5,13.8,-9.7,18.6,14.5,-9.0,5.73,2.57,-8.3,24.9
2013-10-12 01:25:00,0.0,1.93318,0.00040,397.719,0.092,0.3930,0.0025,139.999,45.000,31643.46988,1.94076,399.626,32.004,45.057,45.000,0.00,0.11,-272.58,-272.64,-18,567,0,18.5,13.8,-9.6,18.6,14.5,-9.0,5.73,2.57,-8.3,24.9
2013-10-12 01:26:00,0.0,1.93271,0.00038,397.599,0.026,0.3940,0.0016,140.004,45.000,31645.09786,1.94035,399.511,32.021,45.057,45.000,0.00,0.11,-272.58,-272.63,-18,567,0,18.5,13.9,-9.6,18.6,14.5,-9.0,5.73,2.56,-8.4,24.9
2013-10-12 01:27:00,0.0,1.93294,0.00044,397.573,0.029,0.3950,0.0018,139.998,45.000,31643.47565,1.94050,399.482,32.026,45.057,45.000,0.00,0.11,-272.58,-272.64,-18,567,0,18.5,13.9,-9.6,18.6,14.5,-9.0,5.73,2.57,-8.3,24.9
2013-10-12 01:28:00,0.0,1.93335,0.00021,397.617,0.038,0.3964,0.0015,139.999,45.000,31641.92959,1.94093,399.531,32.022,45.057,45.000,0.00,0.11,-272.57,-272.64,-18,567,0,18.5,13.9,-9.6,18.6,14.6,-8.9,5.73,2.57,-8.4,24.9
2013-10-12 01:29:00,0.0,1.93311,0.00025,397.614,0.041,0.3971,0.0021,139.998,45.000,31641.63009,1.94083,399.535,32.027,45.057,45.000,0.00,0.11,-272.58,-272.64,-18,567,0,18.5,14.0,-9.5,18.6,14.6,-8.9,5.73,2.57,-8.4,24.9
2013-10-12 01:30:00,0.0,1.93316,0.00048,397.557,0.023,0.3961,0.0026,140.004,45.000,31642.88332,1.94072,399.477,32.041,45.057,45.000,0.00,0.11,-272.57,-272.64,-18,567,0,18.5,14.0,-9.5,18.6,14.6,-8.9,5.73,2.57,-8.3,24.9
2013-10-12 01:31:00,0.0,1.93319,0.00023,397.543,0.015,0.3994,0.0015,140.005,45.000,31645.61112,1.94093,399.472,32.048,45.057,45.000,0.00,0.11,-272.58,-272.64,-18,567,0,18.5,14.0,-9.5,18.6,14.6,-8.8,5.73,2.57,-8.4,24.9
2013-10-12 01:32:00,0.0,1.93287,0.00018,397.548,0.023,0.3998,0.0016,140.001,45.000,31643.99244,1.94056,399.482,32.051,45.057,45.000,0.00,0.11,-272.58,-272.63,-18,567,0,18.5,14.1,-9.4,18.6,14.7,-8.8,5.73,2.56,-8.3,24.9
2013-10-12 01:33:00,0.0,1.93267,0.00030,397.534,0.053,0.4004,0.0020,140.000,45.000,31643.88765,1.94040,399.468,32.041,45.057,45.000,0.00,0.11,-272.58,-272.64,-18,567,-0,18.5,14.1,-9.4,18.6,14.7,-8.8,5.73,2.57,-8.3,24.9
2013-10-12 01:34:00,0.0,1.93343,0.00022,397.596,0.026,0.4036,0.0012,140.000,45.000,31641.61287,1.94110,399.546,32.061,45.057,45.000,0.00,0.11,-272.57,-272.64,-18,567,0,18.5,14.2,-9.4,18.6,14.8,-8.7,5.73,2.57,-8.3,24.9
2013-10-12 01:35:00,0.0,1.93281,0.00032,397.483,0.033,0.4046,0.0025,140.002,45.000,31642.18737,1.94068,399.447,32.051,45.057,45.000,0.00,0.11,-272.57,-272.64,-18,567,0,18.5,14.2,-9.3,18.6,14.8,-8.7,5.73,2.57,-8.3,24.9
2013-10-12 01:36:00,0.0,1.93288,0.00033,397.550,0.071,0.4070,0.0021,140.003,45.000,31643.37218,1.94065,399.510,32.053,45.057,45.000,0.00,0.11,-272.58,-272.64,-18,567,-0,18.5,14.3,-9.2,18.6,14.9,-8.6,5.73,2.57,-8.3,24.9
2013-10-12 01:37:00,0.0,1.93295,0.00041,397.504,0.023,0.4104,0.0014,140.001,45.000,31642.77582,1.94090,399.495,32.063,45.057,45.000,0.00,0.31,-271.07,-271.47,-18,567,-0,18.5,14.4,-9.1,18.6,15.0,-8.5,5.42,2.61,-11.1,24.9
2013-10-12 01:38:00,0.0,1.93280,0.00056,397.507,0.031,0.4120,0.0012,140.008,45.000,31644.65521,1.94074,399.500,32.063,45.057,45.000,0.00,0.11,-272.57,-272.63,-18,567,0,18.5,14.4,-9.1,18.6,15.1,-8.5,5.73,2.57,-8.3,24.9
2013-10-12 01:39:00,0.0,1.93263,0.00032,397.524,0.025,0.4133,0.0014,140.001,45.000,31641.67705,1.94059,399.524,32.063,45.057,45.000,0.00,0.11,-272.58,-272.64,-18,567,-0,18.5,14.5,-9.0,18.6,15.1,-8.4,5.73,2.57,-8.3,24.9
2013-10-12 01:40:00,0.0,1.93284,0.00035,397.524,0.068,0.4122,0.0023,140.004,45.000,31643.12811,1.94071,399.510,32.063,45.057,45.000,0.00,0.11,-272.57,-272.64,-18,567,0,18.6,14.5,-9.0,18.6,15.2,-8.4,5.73,2.56,-8.3,24.9
2013-10-12 01:41:00,0.0,1.93316,0.00041,397.605,0.022,0.4138,0.0008,139.997,45.000,31640.67449,1.94116,399.610,32.068,45.057,45.000,0.00,0.11,-272.57,-272.64,-18,567,-0,18.6,14.6,-9.0,18.6,15.2,-8.4,5.73,2.57,-8.3,25.0
2013-10-12 01:42:00,0.0,1.93247,0.00034,397.517,0.058,0.4168,0.0028,139.999,45.000,31642.60275,1.94051,399.539,32.067,45.057,45.000,0.00,0.11,-272.57,-272.64,-18,567,-0,18.6,14.6,-8.9,18.6,15.2,-8.3,5.73,2.56,-8.3,25.0
2013-10-12 01:43:00,0.0,1.93349,0.00040,397.624,0.018,0.4183,0.0017,140.002,45.000,31642.89141,1.94154,399.640,32.088,45.057,45.000,0.00,0.11,-272.58,-272.64,-18,568,-0,18.6,14.7,-8.9,18.6,15.3,-8.2,5.73,2.56,-8.3,25.0
2013-10-12 01:44:00,0.0,1.93340,0.00032,397.645,0.020,0.4199,0.0012,140.004,45.000,31644.54386,1.94141,399.676,32.086,45.057,45.000,0.00,0.11,-272.58,-272.64,-18,568,-0,18.6,14.7,-8.8,18.6,15.4,-8.2,5.73,2.57,-8.3,24.9
2013-10-12 01:45:00,0.0,1.93304,0.00023,397.623,0.029,0.4219,0.0008,140.001,45.000,31645.28143,1.94121,399.664,32.104,45.057,45.000,0.00,0.11,-272.57,-272.63,-18,568,-0,18.6,14.8,-8.8,18.6,15.4,-8.1,5.73,2.57,-8.3,25.0
2013-10-12 01:46:00,0.0,1.93266,0.00032,397.603,0.048,0.4251,0.0046,140.001,45.000,31646.55482,1.94088,399.661,32.085,45.057,45.000,0.00,0.11,-272.57,-272.64,-18,568,-0,18.6,15.0,-8.6,18.6,15.6,-8.0,5.73,2.57,-8.3,25.0